Current weather by "City, St" or "zip code"  
 
Advertise Here

Current Conditions: Burlington/Mount Vernon, Skagit Regional Airport, WA

Partly Cloudy


52.0 F

Last Updated on May 29 2020, 11:55 pm PDT
Humidity: 82%
Wind Speed: S 6.9 mph
Barometer 29.86 in
Dewpoint: 46.4 F
Visibility: 10.00 mi
Precip: --
Heat Index: NA
Wind Chill: 50 F
Current conditions at:

Burlington/Mount Vernon, Skagit Regional Airport, WA (KBVS)

Lat: 48.47083 Lon: 122.42083

Local Radar Image active severe weather and emergency alerts image image weather storm and storm spotter reports image weather observation monitoring service image
Local
Radar
Active
Alerts
Storm Reports Obs
Monitoring

Sign-up For Email & Text Message Weather Alert Notification Services


Advertise Here

Observation History for Burlington/Mount Vernon, Skagit Regional Airport, WA


Time Wind
(mph)
Vis
(mi)
Weather Precip (in) Temperature (F) Relative
Humidity
Wind
Chill
(F)
Heat
Index
(F)
Pressure
Air Dwpt altimeter
(in)
sea level
(mb)
Rmks
11:55 pm PDT S 6.9 10.00 Partly Cloudy -- 52.0 46.4 82% 50 NA 29.86 M
11:35 pm PDT S 5.8 10.00 A Few Clouds -- 54.0 44.6 72% 53 NA 29.86 M
10:55 pm PDT SE 5.8 10.00 Partly Cloudy -- 54.0 44.6 72% 53 NA 29.86 M
9:55 pm PDT SE 6.9 10.00 Fair -- 54.0 44.6 72% 52 NA 29.86 M
8:55 pm PDT N 0.0 10.00 Fair -- 55.0 44.6 67% NA NA 29.86 M
7:55 pm PDT S 5.8 10.00 Fair -- 59.0 44.6 59% 58 NA 29.87 M
6:55 pm PDT SE 8.1 10.00 Fair -- 64.0 48.2 56% NA NA 29.87 M
5:55 pm PDT S 4.6 10.00 Fair -- 68.0 46.4 46% NA NA 29.89 M
4:55 pm PDT SW 6.9 10.00 Fair -- 73.0 50.0 44% NA NA 29.90 M
3:50 pm PDT SW 8.1 9.00 Fair -- 72.0 51.8 50% NA NA 29.91 M
2:55 pm PDT 5.8 G 13.8 9.00 Fair -- 72.0 53.6 53% NA NA 29.92 M
1:55 pm PDT S 5.8 9.00 Fair -- 73.0 55.4 53% NA NA 29.92 M
12:55 pm PDT N 0.0 9.00 Fair -- 72.0 55.4 57% NA NA 29.93 M
11:55 am PDT SW 3.5 8.00 Fair -- 68.0 53.6 60% NA NA 29.95 M
10:55 am PDT SE 9.2 9.00 Fair -- 68.0 53.6 60% NA NA 29.96 M
9:55 am PDT SE 8.1 10.00 Fair -- 66.0 53.6 64% NA NA 29.97 M
8:55 am PDT S 8.1 9.00 Fair -- 61.0 53.6 77% 60 NA 29.98 M
7:55 am PDT S 6.9 8.00 Fair -- 59.0 53.6 82% 58 NA 29.99 M
6:55 am PDT S 8.1 9.00 Fair -- 57.0 53.6 88% 55 NA 29.98 M
5:55 am PDT SE 6.9 10.00 Fair -- 54.0 51.8 94% 52 NA 29.97 M
4:55 am PDT 5.8 10.00 Fair -- 52.0 50.0 94% 50 NA 29.95 M
3:55 am PDT S 5.8 10.00 Fair -- 52.0 48.2 88% 50 NA 29.95 M
2:55 am PDT SE 3.5 10.00 Fair -- 52.0 48.2 88% NA NA 29.94 M
1:55 am PDT N 0.0 10.00 Fair -- 54.0 48.2 82% NA NA 29.94 M

Regional Weather Observation


Eastsound, Orcas Island Airport, WA (KORS)

NULL
63.0 F

Burlington/Mount Vernon, Skagit Regional Airport, WA (KBVS)

Partly Cloudy
52.0 F

Whidbey Island Naval Air Station - Ault Field, WA (KNUW)

Mostly Cloudy
53.0 F

Arlington Municipal Airport, WA (KAWO)

Fair
53.0 F

Friday Harbor Airport, WA (KFHR)

Fair
53.0 F

Port Angeles Fairchild International Airport, WA (KCLM)

Fair
53.0 F